Wind_Speed
6 5 4 4 3 2 4 4 6 9 10 9 9 8 8 8 9 7 9 7 4 3 3 3 4 4 5 4 2 2 2 3 5 6 8 10 12 13 12 13 14 14 14
9 8 7 6 5 5 5 5 4 5 8 9 9 11 9 10 9 11 10 9 7 6 5 5 4 4 4 4 2 2 2 3 5 7 8 12 13 12 13 13 14 14 14
12 11 8 7 8 7 7 7 6 6 7 10 11 11 12 12 12 11 11 11 9 7 6 6 5 5 4 4 3 2 3 4 4 4 9 11 12 13 14 14 14 14 13
12 13 12 11 9 9 10 10 10 9 8 8 9 10 13 15 16 14 12 11 10 8 7 7 7 7 5 4 4 5 6 6 6 7 8 9 12 12 14 15 16 18 19
15 15 15 14 13 12 10 11 12 12 11 9 9 9 9 11 11 12 12 11 10 8 9 8 7 8 6 5 5 6 7 8 9 9 9 10 10 13 17 15 14 16 16
23 22 18 18 17 16 15 14 12 13 13 13 11 11 11 9 9 9 10 9 9 8 7 10 9 9 7 6 6 6 8 9 10 11 11 10 13 16 16 16 14 14 14
20 22 24 25 25 22 21 20 18 15 14 16 15 14 14 13 11 11 9 8 8 9 9 9 10 9 8 7 6 7 9 11 12 12 11 11 14 16 16 15 14 13 13
15 16 18 19 21 24 26 25 24 22 19 17 19 18 16 16 16 14 14 11 11 12 10 9 8 9 9 8 7 9 10 12 12 12 14 10 14 15 15 15 14 13 13
13 15 17 17 16 15 19 24 27 26 24 21 20 22 20 20 19 18 17 14 14 14 13 11 9 10 10 10 9 11 12 13 14 14 16 12 13 14 15 14 13 13 13
15 15 16 17 17 16 16 17 23 28 28 27 24 22 24 24 22 20 19 18 17 17 16 17 15 14 13 12 11 12 14 15 15 15 15 14 12 13 13 14 13 14 14
16 16 18 19 20 19 18 17 19 23 28 29 29 27 25 25 26 23 22 22 21 20 21 22 21 18 18 16 13 13 16 16 16 15 15 16 15 13 14 14 15 15 14
18 18 19 20 21 21 21 21 20 22 24 29 30 31 30 27 26 27 26 26 24 24 25 25 25 23 21 19 16 15 17 18 18 17 17 17 17 17 16 16 17 16 15
19 20 21 20 21 22 23 22 22 22 24 26 28 33 32 33 30 28 30 29 27 27 29 29 27 23 21 22 20 18 18 19 19 20 19 18 19 19 18 18 18 17 16
19 19 21 21 21 22 23 24 25 24 25 26 27 29 33 35 34 32 31 33 30 31 31 31 29 25 25 24 23 20 20 21 20 21 19 21 21 22 20 20 19 19 18
18 19 21 21 22 22 22 23 25 26 27 27 28 30 32 34 36 36 35 35 35 34 33 34 31 29 27 24 25 22 20 22 22 22 20 22 23 23 22 22 22 21 19
20 21 22 23 24 25 25 25 25 25 27 29 30 31 32 34 36 36 39 37 37 36 37 37 35 33 30 26 26 25 23 22 24 23 22 26 25 25 24 25 24 22 21
20 21 22 23 24 25 27 28 29 28 28 29 30 32 33 34 37 40 41 43 41 40 40 41 41 38 35 31 28 28 26 24 25 26 24 27 28 27 27 27 25 24 23
18 16 17 20 21 24 25 26 27 28 29 30 31 33 36 38 39 42 45 45 45 44 43 43 45 43 39 39 29 29 30 27 27 28 25 29 30 30 30 27 28 26 25
18 17 17 18 20 22 23 24 25 27 29 31 31 32 35 38 41 43 47 50 46 48 48 45 45 48 39 34 32 30 31 30 29 30 28 30 31 32 31 30 27 26 26
16 15 16 19 20 22 22 23 23 24 25 28 30 31 31 33 38 42 46 50 53 39 46 53 47 48 56 45 32 33 34 33 33 32 32 31 33 32 33 30 27 27 27
15 14 14 17 20 21 21 22 23 24 26 27 28 30 31 33 34 37 42 47 52 54 46 53 54 51 55 48 43 35 37 37 36 36 35 34 36 35 35 32 30 30 28
16 17 20 20 20 22 22 22 23 25 27 28 29 30 30 33 36 39 39 41 47 54 56 35 55 50 46 47 52 37 40 42 37 40 38 36 36 37 37 36 34 31 30
21 21 23 24 21 24 25 24 24 26 27 29 32 34 34 38 39 42 42 43 44 48 52 58 42 41 53 47 55 54 46 46 49 43 40 38 38 38 37 37 35 34 32
22 22 23 22 21 24 27 27 27 28 31 30 33 34 36 41 44 44 44 48 46 48 50 55 63 56 41 40 48 58 44 47 46 44 40 40 39 39 38 37 36 34 33
18 19 22 22 22 23 26 28 28 28 27 27 30 35 38 43 46 50 52 50 51 48 50 53 57 65 56 52 41 52 57 49 43 41 41 39 40 40 38 38 37 36 34
19 22 27 27 24 25 26 28 28 27 26 29 28 26 29 31 35 37 37 46 47 48 49 51 52 58 65 51 49 45 44 50 45 42 40 35 31 36 37 38 37 35 34
Wind_Direction
224 210 189 194 204 202 171 169 168 177 189 199 203 207 223 231 241 230 216 215 221 226 261 256 243 233 239 242 225 226 189 161 153 154 151 145 139 134 131 128 127 128 126
219 206 191 192 201 218 200 201 209 202 193 193 211 213 224 234 232 237 230 225 238 237 247 256 244 207 219 243 257 203 176 166 156 160 162 153 143 137 135 135 132 129 122
229 227 215 210 208 221 232 220 222 238 227 213 210 215 223 225 230 240 236 230 240 245 243 250 237 228 222 240 237 211 188 170 171 158 128 140 142 146 148 145 132 129 128
236 235 229 222 218 214 224 233 224 223 244 233 222 221 220 226 235 242 235 232 236 248 244 247 239 227 232 245 234 208 190 178 179 175 153 153 154 155 155 154 118 119 111
231 227 226 228 225 229 225 228 234 233 227 231 230 231 230 230 230 232 234 236 238 247 250 242 243 231 234 245 237 213 195 183 182 179 168 168 153 150 154 155 142 133 133
242 241 233 229 230 230 232 236 233 234 235 229 225 221 226 236 227 233 240 243 248 253 246 265 254 232 231 235 230 211 196 190 184 184 174 159 149 146 142 149 144 146 144
252 253 251 245 240 233 231 235 238 237 236 235 230 223 221 224 228 234 242 247 243 251 256 266 255 243 241 233 220 205 193 191 189 186 189 163 161 151 149 154 156 156 148
262 260 261 256 249 244 237 234 236 238 240 237 233 230 225 220 222 227 233 234 233 249 252 256 257 246 255 253 228 208 198 194 193 187 187 181 181 166 163 164 164 161 158
264 262 265 266 261 249 246 238 234 236 237 238 238 234 231 227 223 225 228 229 235 247 246 246 257 257 253 257 243 214 208 204 197 196 189 184 184 175 174 172 170 166 164
260 260 258 263 265 263 250 245 236 231 233 234 236 238 237 235 231 228 225 227 228 242 244 255 254 260 260 259 251 227 215 211 208 203 198 193 191 187 182 180 178 172 168
260 254 257 260 263 262 261 254 245 237 233 232 233 235 238 239 238 233 228 226 225 228 237 248 253 255 259 264 260 244 229 218 218 211 208 204 203 201 195 189 182 177 173
261 260 257 257 260 261 260 258 253 247 240 236 234 232 235 237 240 235 231 230 231 231 230 241 248 254 258 258 265 256 241 229 222 224 217 209 209 210 201 190 184 179 178
266 269 267 262 257 258 261 259 256 253 248 244 239 236 234 235 236 238 234 232 232 231 227 234 242 249 256 260 257 255 244 237 228 224 226 216 211 210 198 193 187 186 182
268 270 271 270 266 261 259 259 258 254 252 248 246 242 238 234 232 234 236 236 233 232 233 234 241 248 256 257 248 249 247 240 234 227 222 219 207 205 200 194 189 193 186
271 270 269 269 267 264 262 259 257 254 252 250 247 246 244 240 235 232 233 237 235 233 233 234 241 245 251 256 243 244 246 242 237 230 216 209 199 204 203 198 194 197 192
268 268 266 266 265 264 262 260 258 254 251 251 250 249 247 245 241 232 232 233 235 233 230 239 240 245 249 254 245 243 243 243 239 235 216 206 202 207 203 202 200 199 197
274 271 266 266 266 265 262 260 260 258 254 250 248 247 247 245 242 236 231 231 233 235 234 232 242 242 247 249 244 243 243 242 239 238 229 207 206 210 207 206 203 202 201
280 286 280 271 269 265 260 259 258 259 258 254 248 246 245 244 242 238 235 232 233 235 236 234 238 243 236 243 245 242 245 242 240 238 233 216 208 211 212 208 206 206 205
280 286 289 282 274 268 263 261 258 258 259 259 257 250 246 243 242 240 237 234 232 234 236 240 237 239 240 230 244 244 241 244 241 238 233 224 215 212 214 212 210 209 212
277 291 291 287 276 271 271 270 266 261 259 258 258 257 252 248 245 242 239 238 234 230 241 234 239 244 236 238 232 243 239 238 239 236 233 230 221 216 215 208 210 215 217
279 295 304 294 282 275 272 273 273 270 265 260 255 257 258 256 252 247 245 241 239 231 236 236 239 238 250 239 235 232 236 236 233 235 232 227 225 218 220 213 211 214 220
273 284 303 307 289 278 273 274 277 274 273 268 261 259 256 257 255 253 249 247 241 239 227 234 236 237 243 230 232 220 230 230 225 231 231 227 225 222 220 216 213 213 217
275 290 296 305 291 280 274 274 277 278 278 271 267 262 255 253 254 253 251 246 243 241 241 232 230 248 242 242 228 226 222 231 226 228 231 229 227 224 222 219 217 216 217
274 294 307 307 292 281 278 275 274 278 279 271 266 262 261 259 254 253 252 250 245 240 236 237 236 236 232 236 237 231 232 236 238 233 232 233 227 224 223 221 219 220 221
277 294 304 319 298 285 281 281 282 285 280 270 273 268 264 262 256 252 249 245 246 244 239 236 236 238 243 238 241 231 228 232 235 239 245 246 230 223 223 223 221 221 222
280 290 300 307 304 291 285 285 287 289 289 283 287 284 279 269 259 254 246 240 242 242 242 240 238 236 237 244 243 242 241 227 232 235 237 238 242 231 230 227 225 225 225
Height
3155 3155 3155 3156 3156 3157 3158 3159 3161 3162 3164 3165 3166 3167 3169 3170 3172 3173 3174 3174 3175 3176 3177 3177 3178 3178 3179 3180 3181 3181 3182 3182 3183 3183 3184 3186 3187 3187 3189 3190 3191 3191 3192
3153 3154 3155 3156 3156 3157 3158 3158 3160 3161 3163 3164 3166 3168 3167 3169 3170 3172 3173 3174 3175 3176 3176 3177 3177 3178 3179 3180 3180 3181 3182 3182 3183 3184 3186 3187 3188 3188 3189 3191 3192 3193 3193
3152 3153 3154 3155 3156 3156 3157 3158 3160 3160 3162 3163 3165 3168 3167 3168 3169 3170 3172 3173 3174 3175 3176 3176 3177 3178 3179 3180 3180 3180 3181 3182 3183 3184 3186 3187 3188 3190 3191 3192 3192 3194 3194
3151 3151 3152 3153 3154 3155 3156 3156 3157 3159 3161 3162 3163 3165 3166 3167 3168 3169 3170 3172 3173 3174 3175 3175 3176 3178 3179 3179 3180 3180 3181 3182 3184 3185 3186 3188 3189 3190 3192 3192 3193 3194 3195
3148 3149 3150 3151 3152 3153 3154 3155 3156 3158 3159 3160 3161 3163 3164 3165 3166 3168 3169 3171 3172 3173 3174 3174 3175 3177 3178 3179 3180 3180 3181 3182 3183 3185 3187 3188 3189 3190 3191 3193 3194 3194 3195
3144 3145 3147 3149 3150 3151 3152 3153 3154 3156 3157 3158 3159 3161 3163 3164 3165 3167 3168 3169 3170 3171 3173 3173 3175 3176 3178 3178 3179 3179 3180 3182 3184 3186 3187 3188 3189 3190 3192 3194 3195 3196 3197
3141 3142 3142 3144 3145 3147 3149 3150 3151 3153 3154 3156 3157 3159 3161 3162 3163 3165 3166 3168 3169 3170 3171 3172 3173 3175 3177 3178 3178 3179 3180 3181 3183 3185 3187 3188 3189 3191 3193 3194 3195 3197 3197
3138 3138 3138 3139 3140 3141 3143 3146 3148 3149 3151 3153 3155 3156 3158 3160 3161 3163 3164 3165 3167 3167 3169 3170 3172 3174 3175 3177 3178 3179 3179 3181 3183 3185 3186 3188 3190 3191 3192 3194 3195 3196 3197
3135 3135 3134 3134 3135 3137 3138 3140 3142 3145 3147 3149 3151 3153 3155 3156 3158 3160 3162 3163 3165 3165 3167 3169 3171 3173 3174 3176 3177 3178 3179 3180 3182 3184 3186 3188 3189 3191 3192 3193 3195 3196 3197
3131 3132 3132 3131 3132 3132 3134 3135 3137 3139 3142 3144 3147 3148 3151 3153 3155 3157 3159 3161 3162 3163 3165 3166 3169 3171 3173 3174 3175 3177 3178 3178 3179 3182 3184 3186 3189 3190 3191 3193 3194 3196 3197
3128 3128 3128 3129 3128 3129 3129 3131 3132 3134 3136 3138 3141 3144 3146 3149 3151 3154 3155 3157 3159 3162 3164 3164 3165 3168 3171 3172 3174 3175 3176 3177 3178 3179 3182 3184 3187 3189 3190 3192 3193 3195 3196
3124 3124 3125 3125 3125 3125 3126 3126 3128 3129 3131 3133 3135 3138 3141 3144 3146 3149 3151 3153 3155 3158 3160 3161 3162 3164 3167 3170 3171 3173 3174 3176 3176 3177 3179 3181 3184 3186 3188 3190 3192 3194 3196
3120 3120 3120 3121 3122 3121 3121 3122 3123 3124 3126 3127 3130 3132 3135 3137 3141 3143 3146 3148 3151 3153 3156 3156 3158 3161 3164 3166 3168 3170 3171 3172 3174 3175 3177 3178 3180 3183 3186 3188 3190 3192 3193
3116 3116 3116 3116 3116 3116 3117 3117 3118 3119 3120 3122 3124 3126 3128 3130 3134 3137 3140 3143 3146 3148 3151 3153 3154 3158 3160 3161 3163 3165 3167 3168 3171 3171 3173 3174 3177 3180 3183 3185 3187 3190 3192
3112 3112 3111 3111 3110 3111 3111 3112 3112 3113 3114 3115 3117 3119 3121 3123 3126 3130 3134 3137 3140 3142 3145 3148 3151 3153 3156 3157 3158 3160 3162 3164 3166 3168 3169 3171 3173 3177 3180 3183 3185 3187 3189
3108 3107 3106 3105 3105 3105 3105 3105 3105 3106 3107 3108 3110 3112 3114 3116 3119 3123 3126 3130 3133 3136 3139 3142 3146 3148 3151 3153 3154 3156 3157 3159 3161 3164 3165 3167 3171 3173 3176 3179 3181 3184 3186
3103 3103 3101 3100 3099 3098 3098 3098 3098 3098 3099 3101 3103 3104 3106 3108 3111 3115 3118 3122 3125 3130 3133 3136 3139 3141 3144 3147 3149 3151 3153 3154 3156 3158 3162 3162 3166 3170 3172 3175 3178 3180 3183
3098 3097 3096 3095 3093 3092 3091 3091 3091 3091 3091 3092 3094 3096 3097 3099 3102 3105 3109 3113 3117 3121 3125 3128 3131 3134 3135 3140 3143 3146 3149 3150 3151 3153 3157 3158 3161 3165 3168 3171 3173 3176 3178
3092 3092 3091 3088 3087 3085 3084 3084 3084 3084 3084 3084 3084 3086 3088 3089 3092 3095 3099 3103 3108 3112 3116 3120 3123 3126 3126 3130 3137 3140 3143 3145 3146 3148 3151 3154 3156 3159 3163 3166 3170 3172 3175
3086 3085 3084 3082 3080 3078 3077 3076 3076 3076 3077 3077 3076 3077 3078 3081 3083 3085 3088 3093 3098 3103 3106 3110 3114 3116 3116 3125 3127 3134 3136 3138 3140 3141 3144 3148 3151 3154 3157 3160 3164 3168 3171
3081 3080 3078 3076 3074 3072 3070 3069 3068 3068 3068 3069 3070 3070 3071 3072 3074 3076 3079 3083 3087 3091 3096 3099 3104 3108 3111 3114 3119 3124 3128 3131 3132 3134 3137 3140 3144 3149 3152 3156 3158 3162 3165
3075 3074 3073 3070 3067 3065 3063 3062 3060 3060 3059 3060 3061 3062 3062 3063 3064 3065 3068 3072 3076 3081 3087 3088 3093 3094 3097 3102 3108 3111 3119 3122 3124 3125 3129 3133 3137 3142 3146 3150 3152 3156 3160
3068 3067 3066 3064 3060 3058 3055 3054 3053 3052 3052 3052 3052 3052 3053 3052 3054 3056 3057 3060 3064 3069 3074 3081 3082 3085 3092 3093 3096 3102 3106 3110 3115 3118 3122 3127 3131 3136 3140 3144 3147 3150 3153
3062 3061 3059 3057 3054 3051 3048 3047 3045 3044 3042 3042 3041 3041 3042 3041 3042 3044 3046 3049 3052 3057 3060 3067 3073 3077 3079 3086 3090 3090 3096 3104 3107 3112 3116 3120 3125 3129 3134 3138 3142 3145 3148
3056 3055 3053 3050 3046 3043 3041 3039 3037 3035 3032 3031 3031 3030 3029 3028 3028 3030 3032 3035 3040 3045 3050 3054 3060 3066 3070 3075 3080 3083 3088 3093 3098 3105 3111 3113 3118 3123 3128 3131 3135 3138 3142
3049 3048 3047 3044 3040 3036 3033 3032 3030 3027 3024 3022 3020 3018 3017 3014 3014 3015 3018 3022 3027 3032 3037 3044 3047 3053 3061 3065 3072 3075 3080 3083 3088 3095 3102 3109 3114 3119 3122 3125 3128 3133 3136